sat.trackr.live / text

‹ back to catalog

STARLINK-3785

NORAD 52375 · 2022-045AW

PAYLOAD ACTIVE UNKNOWN

§ Identity

Operator
Country
US
Launch date
2022-04-29
Launch site
AFETR
Launch vehicle
Mass (kg)
RCS (m²)

Purposes: comms

External: N2YO · Heavens-Above · Gunter

§ Orbital elements

Epoch: 2026-05-25T04:43:51.707136Z

Period
95.44 min
Inclination
53.2122°
Eccentricity
0.0001210
Mean motion
15.08830780 rev/d
Perigee alt
538.9 km
Apogee alt
540.6 km
Semi-major
6,917.9 km
B*
1.9263e-5
RAAN
205.6668°
Arg perigee
99.2906°
Mean anomaly
260.8223°
Rev number
22,747

§ Raw data

STARLINK-37851 52375U 22045AW  26145.19712624  .00000019  00000+0  19263-4 0  99992 52375  53.2122 205.6668 0001210  99.2906 260.8223 15.08830780227476

JSON: /api/v1/satellites/52375 · /tle

For live sub-satellite position, see the globe view (requires WebGL).

§ Visibility from observer

Set your observer location to see the next 7 days of passes ≥ 10°. The values pass through the URL so the page stays shareable.

No JS? Fill the form by hand. The geolocation button needs JavaScript.